Regional Weather Roundup
Issued by NWS

Home | Current Version | Previous Version | Text Only | Print | Product List | Glossary Off
Versions: 1 2 3 4 5 6 7 8 9 10 11 12 13 14 15 16 17 18 19 20 21 22 23 24 25 26 27 28 29 30 31 32 33 34 35 36 37 38 39 40 41 42 43 44 45 46 47 48 49 50

495
ASUS43 KLSX 252110
RWRMO

WEATHER SUMMARY FOR MISSOURI
NATIONAL WEATHER SERVICE SPRINGFIELD MO
300 PM CST SAT FEB 25 2017

NOTE: "FAIR" INDICATES FEW OR NO CLOUDS BELOW 12,000 FEET WITH NO
       SIGNIFICANT WEATHER AND/OR OBSTRUCTIONS TO VISIBILITY.
       CURRENT SKY AND/OR WEATHER CONDITIONS ARE NOT AVAILABLE FOR
       CHILLICOTHE AND FARMINGTON.

MOZ001>031-035>038-043-044-053-054-252200-
...NORTHERN AND WESTERN MISSOURI...

CITY           SKY/WX    TMP DP  RH WIND       PRES   REMARKS
KANSAS CTY INT MOSUNNY   39  10  30 VRB5      30.10F
KANSAS C DTWN  SUNNY     44   9  23 W6        30.10F
LEE`S SUMMIT   SUNNY     41   9  26 NW9       30.11F
ST JOSEPH      SUNNY     37  16  42 CALM      30.11F
CHILLICOTHE      N/A     38  13  35 NW7       30.12F
KIRKSVILLE     SUNNY     36  10  34 W9        30.09S WCI  29

$$
MOZ066>068-077>081-088>096-101>105-252200-
...SOUTHWEST MISSOURI...

CITY           SKY/WX    TMP DP  RH WIND       PRES   REMARKS
SPRINGFIELD    SUNNY     43  12  28 N5        30.11F
JOPLIN         SUNNY     43  13  29 VRB5      30.14F
BRANSON        SUNNY     41  12  30 W7        30.13F

$$
MOZ032>034-039>042-045>050-055>058-069>072-252200-
...CENTRAL MISSOURI...

CITY           SKY/WX    TMP DP  RH WIND       PRES   REMARKS
COLUMBIA       SUNNY     41  11  29 NW10G20   30.10S
JEFFERSON CITY SUNNY     40  11  30 W10       30.12S
ROLLA          SUNNY     40  11  30 NW15G21   30.09S
SEDALIA        SUNNY     42   8  24 NW12      30.12F
WHITEMAN AFB   MOSUNNY   41   8  25 W6        30.10F
WARRENSBURG    SUNNY     41   9  26 W7        30.12S
OSAGE BEACH    SUNNY     42   8  24 VRB7      30.13F

$$
MOZ051-052-059>065-252200-
...EAST CENTRAL MISSOURI...

CITY           SKY/WX    TMP DP  RH WIND       PRES   REMARKS
ST LOUIS INTL  MOSUNNY   41  13  31 NW22      30.09R
SPIRIT OF STL  SUNNY     41  11  29 W18G30    30.09S
ST CHARLES     SUNNY     39  12  33 NW16      30.09R

$$
MOZ072>076-082>087-097>100-106>115-252200-
...SOUTH CENTRAL AND SOUTHEAST MISSOURI...

CITY           SKY/WX    TMP DP  RH WIND       PRES   REMARKS
CAPE GIRARDEAU SUNNY     44  14  29 NW13      30.09R
FARMINGTON     SUNNY     41  13  31 W8        30.08R
POPLAR BLUFF   SUNNY     45  13  27 W7        30.10S
WEST PLAINS    SUNNY     46  13  26 NW14      30.10F

$$




USA.gov is the U.S. government's official web portal to all federal, state and local government web resources and services.